Nashua, NH

1:03 PM EDT on July 24, 2017 (GMT -0400)
Boire

Weather History for KASH - June, 2013

Change the Weather History Date:

Tuesday, June 11, 2013

  Actual Average Record
Temperature  
Mean Temperature 58 °F -  
Max Temperature 61 °F 77 °F 93 °F (1973)
Min Temperature 54 °F 50 °F 35 °F (1980)
Degree Days  
Heating Degree Days 8    
Growing Degree Days 8 (Base 50)    
Moisture  
Dew Point 55 °F    
Average Humidity 91    
Maximum Humidity 96    
Minimum Humidity 78    
Precipitation  
Precipitation 0.70 in - - ()
Sea Level Pressure  
Sea Level Pressure 30.04 in    
Wind  
Wind Speed 5 mph (ENE)    
Max Wind Speed 10 mph    
Max Gust Speed -    
Visibility 4 miles    
Events Rain    
Averages and records for this station are not official NWS values.
T = Trace of Precipitation, MM = Missing Value Source: NWS Daily Summary

Daily Weather History Graph

Daily Weather History Graph

Search for Another Location

Airport or City:

Trip Planner

Search our weather history database for the weather conditions in past years. The results will help you decide how hot, cold, wet, or windy it might be!

Date:

Astronomy

Jun. 11, 2013 Rise Set
Actual Time 5:07 AM EDT 8:24 PM EDT
Civil Twilight 4:32 AM EDT 8:59 PM EDT
Nautical Twilight 3:47 AM EDT 9:44 PM EDT
Astronomical Twilight 2:51 AM EDT 10:40 PM EDT
Moon 7:50 AM EDT (6/11) 10:22 PM EDT (6/11)
Length of Visible Light 16h 27m
Length of Day
15h 17m
Waxing Crescent, 8% of the Moon is Illuminated
Jun 11
Waxing Crescent
Jun 16
First Quarter
Jun 23
Full
Jun 30
Last Quarter
Jul 8
New

Hourly Weather History & Observations

Time (EDT) Temp. Dew Point Humidity Pressure Visibility Wind Dir Wind Speed Gust Speed Precip Events Conditions
12:00 AM 57.2 °F 55.4 °F 94% 30.03 in 1.8 mi East 6.9 mph - 0.04 in Rain Rain
12:03 AM 57.2 °F 55.4 °F 94% 30.03 in 2.5 mi ESE 6.9 mph - 0.04 in Rain Light Rain
12:06 AM 57.2 °F 55.4 °F 94% 30.03 in 3.0 mi ESE 6.9 mph - 0.04 in Rain Light Rain
12:51 AM 57.9 °F 55.9 °F 93% 30.74 in 10.0 mi ESE 8.1 mph - 0.08 in   Overcast
1:51 AM 57.9 °F 55.9 °F 93% 30.69 in 4.0 mi East 9.2 mph - 0.03 in Rain Rain
2:08 AM 57.2 °F 55.4 °F 94% 29.96 in 2.0 mi ESE 6.9 mph - 0.05 in Rain Rain
2:20 AM 57.2 °F 55.4 °F 94% 29.95 in 4.0 mi East 8.1 mph - 0.07 in Rain Light Rain
2:51 AM 57.9 °F 55.9 °F 93% 30.66 in 4.0 mi East 8.1 mph - 0.12 in Rain Light Rain
3:22 AM 57.2 °F 55.4 °F 94% 29.92 in 2.5 mi East 10.4 mph - 0.01 in Rain Light Rain
3:51 AM 56.8 °F 54.9 °F 93% 30.63 in 2.5 mi East 10.4 mph - 0.03 in Rain Light Rain
4:17 AM 57.2 °F 55.4 °F 94% 29.89 in 3.0 mi East 8.1 mph - 0.04 in Rain Rain
4:24 AM 55.4 °F 53.6 °F 94% 29.88 in 2.5 mi East 6.9 mph - 0.07 in Rain Rain
4:27 AM 55.4 °F 53.6 °F 94% 29.88 in 3.0 mi East 6.9 mph - 0.07 in Rain Rain
4:51 AM 55.9 °F 54.0 °F 93% 30.60 in 6.0 mi East 5.8 mph - 0.09 in Rain Light Rain
5:51 AM 55.9 °F 52.9 °F 89% 30.58 in 10.0 mi ENE 6.9 mph - 0.06 in   Overcast
6:06 AM 55.4 °F 53.6 °F 94% 29.85 in 1.8 mi NE 6.9 mph - 0.00 in Rain Light Rain
6:10 AM 55.4 °F 53.6 °F 94% 29.85 in 1.0 mi Variable 5.8 mph - 0.01 in Rain Light Rain
6:19 AM 55.4 °F 53.6 °F 94% 29.85 in 0.8 mi Variable 4.6 mph - 0.01 in Rain Light Rain
6:51 AM 54.9 °F 52.9 °F 93% 30.55 in 1.0 mi ENE 6.9 mph - 0.03 in Rain Light Rain
7:02 AM 55.4 °F 53.6 °F 94% 29.81 in 1.5 mi NE 5.8 mph - 0.01 in Rain Light Rain
7:31 AM 55.4 °F 53.6 °F 94% 29.80 in 5.0 mi NNE 4.6 mph - 0.02 in Rain Light Rain
7:51 AM 54.9 °F 52.9 °F 93% 30.52 in 2.0 mi Variable 5.8 mph - 0.04 in Rain Light Rain
8:04 AM 55.4 °F 53.6 °F 94% 29.79 in 3.0 mi Calm Calm - 0.00 in Rain Light Rain
8:51 AM 54.9 °F 52.9 °F 93% 30.50 in 3.0 mi Calm Calm - 0.00 in Rain Light Rain
9:01 AM 55.4 °F 53.6 °F 94% 29.77 in 1.8 mi Variable 4.6 mph - 0.01 in Rain Rain
9:51 AM 55.9 °F 54.0 °F 93% 30.48 in 3.0 mi North 3.5 mph - 0.04 in Rain Light Rain
10:17 AM 57.2 °F 53.6 °F 88% 29.74 in 2.0 mi North 6.9 mph - 0.00 in   Overcast
10:51 AM 56.8 °F 54.0 °F 90% 30.47 in 2.5 mi North 5.8 mph - 0.00 in   Overcast
11:51 AM 57.9 °F 54.9 °F 90% 30.46 in 3.0 mi North 5.8 mph - N/A   Overcast
12:51 PM 59.0 °F 54.9 °F 86% 30.45 in 5.0 mi Variable 6.9 mph - 0.00 in   Overcast
1:51 PM 59.9 °F 54.9 °F 83% 30.44 in 8.0 mi North 6.9 mph - N/A   Overcast
2:51 PM 61.0 °F 54.0 °F 78% 30.41 in 10.0 mi Calm Calm - N/A   Overcast
3:51 PM 61.0 °F 54.0 °F 78% 30.40 in 10.0 mi Calm Calm - N/A   Overcast
4:51 PM 61.0 °F 54.0 °F 78% 30.37 in 10.0 mi Calm Calm - N/A   Overcast
5:30 PM 60.8 °F 55.4 °F 82% 29.63 in 10.0 mi NNE 6.9 mph - N/A   Overcast
5:41 PM 60.8 °F 55.4 °F 82% 29.62 in 1.5 mi NE 6.9 mph - 0.02 in Rain Heavy Rain
5:51 PM 59.0 °F 55.9 °F 90% 30.34 in 1.5 mi East 5.8 mph - 0.04 in Rain Rain
5:57 PM 59.0 °F 55.4 °F 88% 29.61 in 3.0 mi ENE 5.8 mph - 0.00 in Rain Light Rain
6:05 PM 59.0 °F 55.4 °F 88% 29.61 in 10.0 mi Calm Calm - 0.00 in Rain Light Rain
6:13 PM 59.0 °F 55.4 °F 88% 29.61 in 10.0 mi Calm Calm - 0.00 in   Overcast
6:31 PM 59.0 °F 55.4 °F 88% 29.61 in 4.0 mi Calm Calm - 0.02 in Rain Light Rain
6:51 PM 57.9 °F 55.9 °F 93% 30.35 in 4.0 mi Calm Calm - 0.05 in Rain Light Rain
7:02 PM 57.2 °F 55.4 °F 94% 29.60 in 1.8 mi ENE 5.8 mph - 0.03 in Rain Rain
7:14 PM 57.2 °F 55.4 °F 94% 29.61 in 2.5 mi Calm Calm - 0.05 in Rain Rain
7:24 PM 57.2 °F 55.4 °F 94% 29.61 in 4.0 mi Calm Calm - 0.06 in Rain Light Rain
7:35 PM 57.2 °F 55.4 °F 94% 29.61 in 7.0 mi Calm Calm - 0.07 in Rain Light Rain
7:51 PM 57.9 °F 55.9 °F 93% 30.34 in 10.0 mi Calm Calm - 0.07 in   Overcast
8:04 PM 57.2 °F 55.4 °F 94% 29.61 in 9.0 mi Calm Calm - 0.00 in Rain Light Rain
8:07 PM 57.2 °F 55.4 °F 94% 29.61 in 5.0 mi Calm Calm - 0.00 in Rain Light Rain
8:51 PM 57.9 °F 54.9 °F 90% 30.34 in 10.0 mi Calm Calm - 0.00 in   Overcast
9:15 PM 57.2 °F 55.4 °F 94% 29.61 in 10.0 mi Calm Calm - N/A   Overcast
9:51 PM 57.9 °F 55.9 °F 93% 30.34 in 5.0 mi Calm Calm - N/A   Overcast
10:10 PM 57.2 °F 55.4 °F 94% 29.62 in 2.0 mi Calm Calm - 0.00 in Rain Light Rain
10:21 PM 57.2 °F 55.4 °F 94% 29.61 in 2.0 mi Calm Calm - 0.01 in Rain Light Rain
10:37 PM 57.2 °F 55.4 °F 94% 29.61 in 2.5 mi Calm Calm - 0.01 in Rain Light Rain
10:51 PM 56.8 °F 54.9 °F 93% 30.33 in 4.0 mi Calm Calm - 0.01 in   Partly Cloudy
11:13 PM 57.2 °F 55.4 °F 94% 29.60 in 2.5 mi Calm Calm - N/A   Clear
11:35 PM 57.2 °F 55.4 °F 94% 29.60 in 1.8 mi Calm Calm - 0.00 in Rain Light Rain
11:51 PM 55.9 °F 54.9 °F 96% 30.33 in 1.5 mi Calm Calm - 0.01 in Rain Light Rain